Time,TemperatureF,DewpointF,PressureIn,WindDirection,WindDirectionDegrees,WindSpeedMPH,WindSpeedGustMPH,Humidity,HourlyPrecipIn,Conditions,Clouds,dailyrainin,SoftwareType,DateUTC
2013-03-02 00:04:00,57.2,41.6,30.02,NW,315,5.0,-999.0,56,0.00,,,0.00,Wunderground v.1.15,2013-03-02 05:04:00,
2013-03-02 00:09:00,57.2,42.1,30.02,NW,309,5.0,-999.0,57,0.00,,,0.00,Wunderground v.1.15,2013-03-02 05:09:00,
2013-03-02 00:14:00,57.2,42.5,30.01,NW,322,4.0,-999.0,58,0.00,,,0.00,Wunderground v.1.15,2013-03-02 05:14:00,
2013-03-02 00:19:00,57.2,42.5,30.02,West,265,3.0,-999.0,58,0.00,,,0.00,Wunderground v.1.15,2013-03-02 05:19:00,
2013-03-02 00:24:00,57.2,42.5,30.02,NW,311,4.0,-999.0,58,0.00,,,0.00,Wunderground v.1.15,2013-03-02 05:24:00,
2013-03-02 00:29:00,57.2,42.5,30.02,NW,311,5.0,-999.0,58,0.00,,,0.00,Wunderground v.1.15,2013-03-02 05:29:00,
2013-03-02 00:39:00,57.3,43.1,30.02,WNW,298,5.0,-999.0,59,0.00,,,0.00,Wunderground v.1.15,2013-03-02 05:39:00,
2013-03-02 00:44:00,57.3,43.5,30.02,WNW,302,6.0,-999.0,60,0.00,,,0.00,Wunderground v.1.15,2013-03-02 05:44:00,
2013-03-02 00:49:00,57.3,44.0,30.02,WNW,300,5.0,-999.0,61,0.00,,,0.00,Wunderground v.1.15,2013-03-02 05:49:00,
2013-03-02 00:54:00,57.3,44.0,30.02,NW,321,4.0,-999.0,61,0.00,,,0.00,Wunderground v.1.15,2013-03-02 05:54:00,
2013-03-02 01:04:00,57.1,43.3,30.02,NW,313,4.0,-999.0,60,0.00,,,0.00,Wunderground v.1.15,2013-03-02 06:04:00,
2013-03-02 01:09:00,57.1,43.8,30.02,NW,315,4.0,-999.0,61,0.00,,,0.00,Wunderground v.1.15,2013-03-02 06:09:00,
2013-03-02 01:19:00,57.0,43.7,30.02,NW,315,3.0,-999.0,61,0.00,,,0.00,Wunderground v.1.15,2013-03-02 06:19:00,
2013-03-02 01:24:00,57.0,44.1,30.01,NW,315,4.0,-999.0,62,0.00,,,0.00,Wunderground v.1.15,2013-03-02 06:24:00,
2013-03-02 01:29:00,56.9,44.0,30.01,NW,323,5.0,-999.0,62,0.00,,,0.00,Wunderground v.1.15,2013-03-02 06:29:00,
2013-03-02 01:34:00,56.9,44.0,30.02,NW,317,5.0,-999.0,62,0.00,,,0.00,Wunderground v.1.15,2013-03-02 06:34:00,
2013-03-02 01:39:00,56.8,43.9,30.02,NW,312,6.0,-999.0,62,0.00,,,0.00,Wunderground v.1.15,2013-03-02 06:39:00,
2013-03-02 01:44:00,56.8,43.9,30.02,NW,309,5.0,-999.0,62,0.00,,,0.00,Wunderground v.1.15,2013-03-02 06:44:00,
2013-03-02 01:54:00,56.7,43.8,30.02,NW,323,4.0,-999.0,62,0.00,,,0.00,Wunderground v.1.15,2013-03-02 06:54:00,
2013-03-02 01:59:00,56.6,43.7,30.02,NW,321,3.0,-999.0,62,0.00,,,0.00,Wunderground v.1.15,2013-03-02 06:59:00,
2013-03-02 02:04:00,56.6,43.7,30.01,NW,313,3.0,-999.0,62,0.00,,,0.00,Wunderground v.1.15,2013-03-02 07:04:00,
2013-03-02 02:14:00,56.5,44.0,30.01,NW,321,4.0,-999.0,63,0.00,,,0.00,Wunderground v.1.15,2013-03-02 07:14:00,
2013-03-02 02:24:00,56.4,44.0,30.00,NW,313,4.0,-999.0,63,0.00,,,0.00,Wunderground v.1.15,2013-03-02 07:24:00,
2013-03-02 02:29:00,56.4,44.0,30.00,NW,306,3.0,-999.0,63,0.00,,,0.00,Wunderground v.1.15,2013-03-02 07:29:00,
2013-03-02 02:34:00,56.4,44.0,30.00,NW,315,3.0,-999.0,63,0.00,,,0.00,Wunderground v.1.15,2013-03-02 07:34:00,
2013-03-02 02:44:00,56.4,44.4,30.00,NW,314,3.0,-999.0,64,0.00,,,0.00,Wunderground v.1.15,2013-03-02 07:44:00,
2013-03-02 02:49:00,56.4,44.4,30.01,WNW,303,3.0,-999.0,64,0.00,,,0.00,Wunderground v.1.15,2013-03-02 07:49:00,
2013-03-02 02:54:00,56.4,44.4,30.01,NW,314,2.0,-999.0,64,0.00,,,0.00,Wunderground v.1.15,2013-03-02 07:54:00,
2013-03-02 02:59:00,56.4,44.4,30.00,NW,322,2.0,-999.0,64,0.00,,,0.00,Wunderground v.1.15,2013-03-02 07:59:00,
2013-03-02 03:04:00,56.4,44.4,30.00,NW,305,3.0,-999.0,64,0.00,,,0.00,Wunderground v.1.15,2013-03-02 08:04:00,
2013-03-02 03:14:00,56.4,44.4,30.00,WNW,296,4.0,-999.0,64,0.00,,,0.00,Wunderground v.1.15,2013-03-02 08:14:00,
2013-03-02 03:19:00,56.4,44.4,30.00,WNW,302,4.0,-999.0,64,0.00,,,0.00,Wunderground v.1.15,2013-03-02 08:19:00,
2013-03-02 03:24:00,56.4,44.4,29.99,WNW,287,4.0,-999.0,64,0.00,,,0.00,Wunderground v.1.15,2013-03-02 08:24:00,
2013-03-02 03:29:00,56.3,44.3,30.00,WNW,288,4.0,-999.0,64,0.00,,,0.00,Wunderground v.1.15,2013-03-02 08:29:00,
2013-03-02 03:39:00,56.4,44.4,30.00,NW,307,4.0,-999.0,64,0.00,,,0.00,Wunderground v.1.15,2013-03-02 08:39:00,
2013-03-02 03:44:00,56.4,44.4,30.01,NW,314,4.0,-999.0,64,0.00,,,0.00,Wunderground v.1.15,2013-03-02 08:44:00,
2013-03-02 03:49:00,56.4,44.0,30.00,NW,314,5.0,-999.0,63,0.00,,,0.00,Wunderground v.1.15,2013-03-02 08:49:00,
2013-03-02 03:54:00,56.3,44.7,30.00,NW,315,5.0,-999.0,65,0.00,,,0.00,Wunderground v.1.15,2013-03-02 08:54:00,
2013-03-02 04:04:00,56.2,44.6,30.01,NW,315,4.0,-999.0,65,0.00,,,0.00,Wunderground v.1.15,2013-03-02 09:04:00,
2013-03-02 04:09:00,56.2,44.6,30.01,NW,314,3.0,-999.0,65,0.00,,,0.00,Wunderground v.1.15,2013-03-02 09:09:00,
2013-03-02 04:19:00,56.0,44.4,30.01,NW,314,2.0,-999.0,65,0.00,,,0.00,Wunderground v.1.15,2013-03-02 09:19:00,
2013-03-02 04:24:00,55.9,43.9,30.01,NW,322,2.0,-999.0,64,0.00,,,0.00,Wunderground v.1.15,2013-03-02 09:24:00,
2013-03-02 04:29:00,55.8,44.2,30.01,NW,321,2.0,-999.0,65,0.00,,,0.00,Wunderground v.1.15,2013-03-02 09:29:00,
2013-03-02 04:34:00,55.6,44.4,30.00,NW,321,1.0,-999.0,66,0.00,,,0.00,Wunderground v.1.15,2013-03-02 09:34:00,
2013-03-02 04:39:00,55.5,44.3,30.01,NW,321,1.0,-999.0,66,0.00,,,0.00,Wunderground v.1.15,2013-03-02 09:39:00,
2013-03-02 04:44:00,55.4,43.8,30.01,NW,307,1.0,-999.0,65,0.00,,,0.00,Wunderground v.1.15,2013-03-02 09:44:00,
2013-03-02 04:54:00,55.4,43.0,30.01,NW,323,2.0,-999.0,63,0.00,,,0.00,Wunderground v.1.15,2013-03-02 09:54:00,
2013-03-02 04:59:00,55.5,43.1,30.01,NNW,333,2.0,-999.0,63,0.00,,,0.00,Wunderground v.1.15,2013-03-02 09:59:00,
2013-03-02 05:09:00,55.5,42.7,30.01,NW,319,2.0,-999.0,62,0.00,,,0.00,Wunderground v.1.15,2013-03-02 10:09:00,
2013-03-02 05:14:00,55.5,43.1,30.02,NW,313,2.0,-999.0,63,0.00,,,0.00,Wunderground v.1.15,2013-03-02 10:14:00,
2013-03-02 05:19:00,55.5,42.7,30.01,NW,313,1.0,-999.0,62,0.00,,,0.00,Wunderground v.1.15,2013-03-02 10:19:00,
2013-03-02 05:29:00,55.4,42.2,30.02,NW,322,2.0,-999.0,61,0.00,,,0.00,Wunderground v.1.15,2013-03-02 10:29:00,
2013-03-02 05:39:00,55.2,42.8,30.02,NW,318,2.0,-999.0,63,0.00,,,0.00,Wunderground v.1.15,2013-03-02 10:39:00,
2013-03-02 05:44:00,55.1,42.7,30.02,NNW,346,0.0,-999.0,63,0.00,,,0.00,Wunderground v.1.15,2013-03-02 10:44:00,
2013-03-02 05:54:00,55.0,42.6,30.02,NNW,331,1.0,-999.0,63,0.00,,,0.00,Wunderground v.1.15,2013-03-02 10:54:00,
2013-03-02 06:04:00,54.6,42.7,30.03,NNW,327,0.0,-999.0,64,0.00,,,0.00,Wunderground v.1.15,2013-03-02 11:04:00,
2013-03-02 06:09:00,54.5,43.0,30.03,NNW,327,0.0,-999.0,65,0.00,,,0.00,Wunderground v.1.15,2013-03-02 11:09:00,
2013-03-02 06:19:00,54.1,42.6,30.02,NNW,329,0.0,-999.0,65,0.00,,,0.00,Wunderground v.1.15,2013-03-02 11:19:00,
2013-03-02 06:24:00,54.0,42.5,30.03,NNW,342,0.0,-999.0,65,0.00,,,0.00,Wunderground v.1.15,2013-03-02 11:24:00,
2013-03-02 06:29:00,53.8,42.7,30.03,NNW,342,0.0,-999.0,66,0.00,,,0.00,Wunderground v.1.15,2013-03-02 11:29:00,
2013-03-02 06:34:00,53.6,42.5,30.03,NNW,342,0.0,-999.0,66,0.00,,,0.00,Wunderground v.1.15,2013-03-02 11:34:00,
2013-03-02 06:39:00,53.5,42.8,30.03,NNW,342,0.0,-999.0,67,0.00,,,0.00,Wunderground v.1.15,2013-03-02 11:39:00,
2013-03-02 06:44:00,53.4,42.7,30.03,NNW,342,0.0,-999.0,67,0.00,,,0.00,Wunderground v.1.15,2013-03-02 11:44:00,
2013-03-02 06:54:00,53.2,42.5,30.03,NNW,342,0.0,-999.0,67,0.00,,,0.00,Wunderground v.1.15,2013-03-02 11:54:00,
2013-03-02 06:59:00,53.1,42.4,30.03,NNW,342,0.0,-999.0,67,0.00,,,0.00,Wunderground v.1.15,2013-03-02 11:59:00,
2013-03-02 07:09:00,52.9,42.6,30.03,NNW,342,0.0,-999.0,68,0.00,,,0.00,Wunderground v.1.15,2013-03-02 12:09:00,
2013-03-02 07:14:00,52.8,42.5,30.03,NNW,342,0.0,-999.0,68,0.00,,,0.00,Wunderground v.1.15,2013-03-02 12:14:00,
2013-03-02 07:19:00,52.8,42.9,30.04,NNW,342,0.0,-999.0,69,0.00,,,0.00,Wunderground v.1.15,2013-03-02 12:19:00,
2013-03-02 07:24:00,52.9,42.6,30.04,NNW,342,0.0,-999.0,68,0.00,,,0.00,Wunderground v.1.15,2013-03-02 12:24:00,
2013-03-02 07:29:00,52.9,43.0,30.04,NNW,344,0.0,-999.0,69,0.00,,,0.00,Wunderground v.1.15,2013-03-02 12:29:00,
2013-03-02 07:34:00,52.9,42.6,30.04,NNW,344,0.0,-999.0,68,0.00,,,0.00,Wunderground v.1.15,2013-03-02 12:34:00,
2013-03-02 07:44:00,52.9,43.0,30.04,NE,51,0.0,-999.0,69,0.00,,,0.00,Wunderground v.1.15,2013-03-02 12:44:00,
2013-03-02 07:49:00,52.9,43.0,30.03,NE,56,0.0,-999.0,69,0.00,,,0.00,Wunderground v.1.15,2013-03-02 12:49:00,
2013-03-02 07:54:00,52.9,42.6,30.03,NE,56,0.0,-999.0,68,0.00,,,0.00,Wunderground v.1.15,2013-03-02 12:54:00,
2013-03-02 07:59:00,52.9,42.6,30.03,NE,56,0.0,-999.0,68,0.00,,,0.00,Wunderground v.1.15,2013-03-02 12:59:00,
2013-03-02 08:09:00,53.2,43.3,30.03,ENE,58,0.0,-999.0,69,0.00,,,0.00,Wunderground v.1.15,2013-03-02 13:09:00,
2013-03-02 08:14:00,53.3,43.8,30.03,ENE,58,0.0,-999.0,70,0.00,,,0.00,Wunderground v.1.15,2013-03-02 13:14:00,
2013-03-02 08:19:00,53.5,43.6,30.03,ENE,58,0.0,-999.0,69,0.00,,,0.00,Wunderground v.1.15,2013-03-02 13:19:00,
2013-03-02 08:29:00,53.9,44.3,30.03,NE,56,0.0,-999.0,70,0.00,,,0.00,Wunderground v.1.15,2013-03-02 13:29:00,
2013-03-02 08:34:00,54.0,45.2,30.04,NE,56,0.0,-999.0,72,0.00,,,0.00,Wunderground v.1.15,2013-03-02 13:34:00,
2013-03-02 08:44:00,54.1,42.6,30.03,NE,56,0.0,-999.0,65,0.00,,,0.00,Wunderground v.1.15,2013-03-02 13:44:00,
2013-03-02 08:49:00,54.2,43.1,30.04,NE,49,0.0,-999.0,66,0.00,,,0.00,Wunderground v.1.15,2013-03-02 13:49:00,
2013-03-02 08:54:00,54.3,42.4,30.04,NE,49,0.0,-999.0,64,0.00,,,0.00,Wunderground v.1.15,2013-03-02 13:54:00,
2013-03-02 08:59:00,54.5,43.0,30.04,NE,49,0.0,-999.0,65,0.00,,,0.00,Wunderground v.1.15,2013-03-02 13:59:00,
2013-03-02 09:09:00,55.2,44.0,30.03,NE,50,0.0,-999.0,66,0.00,,,0.00,Wunderground v.1.15,2013-03-02 14:09:00,
2013-03-02 09:14:00,55.8,46.5,30.03,NE,49,0.0,-999.0,71,0.00,,,0.00,Wunderground v.1.15,2013-03-02 14:14:00,
2013-03-02 09:19:00,56.0,44.4,30.03,ENE,65,1.0,-999.0,65,0.00,,,0.00,Wunderground v.1.15,2013-03-02 14:19:00,
2013-03-02 09:24:00,56.0,43.6,30.04,ENE,63,1.0,-999.0,63,0.00,,,0.00,Wunderground v.1.15,2013-03-02 14:24:00,
2013-03-02 09:34:00,56.5,44.0,30.03,ENE,65,1.0,-999.0,63,0.00,,,0.00,Wunderground v.1.15,2013-03-02 14:34:00,
2013-03-02 09:39:00,56.8,45.2,30.04,ENE,64,1.0,-999.0,65,0.00,,,0.00,Wunderground v.1.15,2013-03-02 14:39:00,
2013-03-02 09:44:00,57.4,44.1,30.04,ENE,75,1.0,-999.0,61,0.00,,,0.00,Wunderground v.1.15,2013-03-02 14:44:00,
2013-03-02 09:49:00,57.8,46.1,30.04,ENE,57,1.0,-999.0,65,0.00,,,0.00,Wunderground v.1.15,2013-03-02 14:49:00,
2013-03-02 09:59:00,57.1,44.2,30.04,ENE,75,1.0,-999.0,62,0.00,,,0.00,Wunderground v.1.15,2013-03-02 14:59:00,
2013-03-02 10:09:00,56.3,44.3,30.05,ENE,75,1.0,-999.0,64,0.00,,,0.00,Wunderground v.1.15,2013-03-02 15:09:00,
2013-03-02 10:14:00,56.0,44.4,30.06,ENE,75,0.0,-999.0,65,0.00,,,0.00,Wunderground v.1.15,2013-03-02 15:14:00,
2013-03-02 10:19:00,55.8,43.8,30.06,ENE,75,0.0,-999.0,64,0.00,,,0.00,Wunderground v.1.15,2013-03-02 15:19:00,
2013-03-02 10:24:00,55.8,45.0,30.06,ENE,75,0.0,-999.0,67,0.00,,,0.00,Wunderground v.1.15,2013-03-02 15:24:00,
2013-03-02 10:29:00,55.8,44.2,30.06,ENE,75,0.0,-999.0,65,0.00,,,0.00,Wunderground v.1.15,2013-03-02 15:29:00,
2013-03-02 10:34:00,55.7,43.7,30.07,ENE,75,0.0,-999.0,64,0.00,,,0.00,Wunderground v.1.15,2013-03-02 15:34:00,
2013-03-02 10:44:00,56.0,43.6,30.07,NE,49,0.0,-999.0,63,0.00,,,0.00,Wunderground v.1.15,2013-03-02 15:44:00,
2013-03-02 10:49:00,56.2,42.1,30.07,NNW,328,0.0,-999.0,59,0.00,,,0.00,Wunderground v.1.15,2013-03-02 15:49:00,
2013-03-02 10:54:00,56.4,43.1,30.06,NNW,336,0.0,-999.0,61,0.00,,,0.00,Wunderground v.1.15,2013-03-02 15:54:00,
2013-03-02 10:59:00,56.6,42.9,30.06,NNW,344,0.0,-999.0,60,0.00,,,0.00,Wunderground v.1.15,2013-03-02 15:59:00,
2013-03-02 11:09:00,57.9,42.8,30.06,NW,318,1.0,-999.0,57,0.00,,,0.00,Wunderground v.1.15,2013-03-02 16:09:00,
2013-03-02 11:14:00,58.6,43.4,30.06,NW,326,1.0,-999.0,57,0.00,,,0.00,Wunderground v.1.15,2013-03-02 16:14:00,
2013-03-02 11:19:00,59.4,45.9,30.06,NNW,327,1.0,-999.0,61,0.00,,,0.00,Wunderground v.1.15,2013-03-02 16:19:00,
2013-03-02 11:24:00,59.4,43.2,30.06,NNW,328,0.0,-999.0,55,0.00,,,0.00,Wunderground v.1.15,2013-03-02 16:24:00,
2013-03-02 11:29:00,59.3,43.6,30.06,NE,35,1.0,-999.0,56,0.00,,,0.00,Wunderground v.1.15,2013-03-02 16:29:00,
2013-03-02 11:39:00,59.2,44.0,30.06,North,360,1.0,-999.0,57,0.00,,,0.00,Wunderground v.1.15,2013-03-02 16:39:00,
2013-03-02 11:44:00,59.8,46.3,30.06,NW,317,1.0,-999.0,61,0.00,,,0.00,Wunderground v.1.15,2013-03-02 16:44:00,
2013-03-02 11:49:00,60.6,44.3,30.06,NW,319,2.0,-999.0,55,0.00,,,0.00,Wunderground v.1.15,2013-03-02 16:49:00,
2013-03-02 11:54:00,60.6,44.8,30.05,NW,323,2.0,-999.0,56,0.00,,,0.00,Wunderground v.1.15,2013-03-02 16:54:00,
2013-03-02 11:59:00,60.6,45.3,30.06,NW,318,2.0,-999.0,57,0.00,,,0.00,Wunderground v.1.15,2013-03-02 16:59:00,
2013-03-02 12:09:00,59.2,43.5,30.06,NW,323,7.0,-999.0,56,0.00,,,0.00,Wunderground v.1.15,2013-03-02 17:09:00,
2013-03-02 12:14:00,59.3,44.5,30.06,NNW,341,6.0,-999.0,58,0.00,,,0.00,Wunderground v.1.15,2013-03-02 17:14:00,
2013-03-02 12:19:00,59.3,44.5,30.06,NW,317,6.0,-999.0,58,0.00,,,0.00,Wunderground v.1.15,2013-03-02 17:19:00,
2013-03-02 12:24:00,59.4,45.9,30.06,WNW,293,7.0,-999.0,61,0.00,,,0.00,Wunderground v.1.15,2013-03-02 17:24:00,
2013-03-02 12:34:00,59.1,46.5,30.05,NNW,336,5.0,-999.0,63,0.00,,,0.00,Wunderground v.1.15,2013-03-02 17:34:00,
2013-03-02 12:44:00,59.8,46.3,30.05,NW,315,8.0,-999.0,61,0.00,,,0.00,Wunderground v.1.15,2013-03-02 17:44:00,
2013-03-02 12:49:00,60.2,48.0,30.05,NNW,333,8.0,-999.0,64,0.00,,,0.00,Wunderground v.1.15,2013-03-02 17:49:00,
2013-03-02 12:54:00,61.1,47.1,30.05,WNW,287,7.0,-999.0,60,0.00,,,0.00,Wunderground v.1.15,2013-03-02 17:54:00,
2013-03-02 13:04:00,59.9,46.4,30.05,West,276,8.0,-999.0,61,0.00,,,0.00,Wunderground v.1.15,2013-03-02 18:04:00,
2013-03-02 13:09:00,59.3,46.7,30.05,WNW,299,7.0,-999.0,63,0.00,,,0.00,Wunderground v.1.15,2013-03-02 18:09:00,
2013-03-02 13:14:00,59.2,47.0,30.04,WNW,302,6.0,-999.0,64,0.00,,,0.00,Wunderground v.1.15,2013-03-02 18:14:00,
2013-03-02 13:24:00,59.1,46.9,30.03,NW,314,5.0,-999.0,64,0.00,,,0.00,Wunderground v.1.15,2013-03-02 18:24:00,
2013-03-02 13:29:00,58.8,47.5,30.03,NW,313,5.0,-999.0,66,0.00,,,0.00,Wunderground v.1.15,2013-03-02 18:29:00,
2013-03-02 13:34:00,58.6,46.9,30.02,NW,318,5.0,-999.0,65,0.00,,,0.00,Wunderground v.1.15,2013-03-02 18:34:00,
2013-03-02 13:39:00,58.5,46.8,30.02,NW,311,5.0,-999.0,65,0.00,,,0.00,Wunderground v.1.15,2013-03-02 18:39:00,
2013-03-02 13:44:00,58.6,45.6,30.02,NW,312,6.0,-999.0,62,0.00,,,0.00,Wunderground v.1.15,2013-03-02 18:44:00,
2013-03-02 13:49:00,58.7,45.7,30.02,WNW,292,7.0,-999.0,62,0.00,,,0.00,Wunderground v.1.15,2013-03-02 18:49:00,
2013-03-02 13:54:00,58.7,45.3,30.02,WNW,302,7.0,-999.0,61,0.00,,,0.00,Wunderground v.1.15,2013-03-02 18:54:00,
2013-03-02 13:59:00,58.6,45.2,30.02,NW,317,7.0,-999.0,61,0.00,,,0.00,Wunderground v.1.15,2013-03-02 18:59:00,
2013-03-02 14:09:00,58.3,44.5,30.01,WNW,282,7.0,-999.0,60,0.00,,,0.00,Wunderground v.1.15,2013-03-02 19:09:00,
2013-03-02 14:14:00,58.4,44.1,30.01,West,267,7.0,-999.0,59,0.00,,,0.00,Wunderground v.1.15,2013-03-02 19:14:00,
2013-03-02 14:19:00,58.5,43.8,30.01,NNW,336,6.0,-999.0,58,0.00,,,0.00,Wunderground v.1.15,2013-03-02 19:19:00,
2013-03-02 14:29:00,58.8,44.0,30.01,WNW,302,7.0,-999.0,58,0.00,,,0.00,Wunderground v.1.15,2013-03-02 19:29:00,
2013-03-02 14:34:00,59.0,44.2,30.01,NW,304,6.0,-999.0,58,0.00,,,0.00,Wunderground v.1.15,2013-03-02 19:34:00,
2013-03-02 14:44:00,59.1,43.4,30.00,NW,304,8.0,-999.0,56,0.00,,,0.00,Wunderground v.1.15,2013-03-02 19:44:00,
2013-03-02 14:54:00,59.7,41.5,30.01,West,281,7.0,-999.0,51,0.00,,,0.00,Wunderground v.1.15,2013-03-02 19:54:00,
2013-03-02 14:59:00,59.8,42.1,30.00,WNW,294,6.0,-999.0,52,0.00,,,0.00,Wunderground v.1.15,2013-03-02 19:59:00,
2013-03-02 15:04:00,59.9,41.7,30.00,WNW,286,5.0,-999.0,51,0.00,,,0.00,Wunderground v.1.15,2013-03-02 20:04:00,
2013-03-02 15:14:00,59.4,41.3,30.00,WNW,284,6.0,-999.0,51,0.00,,,0.00,Wunderground v.1.15,2013-03-02 20:14:00,
2013-03-02 15:19:00,59.2,41.1,30.00,West,275,6.0,-999.0,51,0.00,,,0.00,Wunderground v.1.15,2013-03-02 20:19:00,
2013-03-02 15:24:00,59.5,41.3,30.00,NW,304,6.0,-999.0,51,0.00,,,0.00,Wunderground v.1.15,2013-03-02 20:24:00,
2013-03-02 15:29:00,59.9,42.2,30.00,WNW,302,5.0,-999.0,52,0.00,,,0.00,Wunderground v.1.15,2013-03-02 20:29:00,
2013-03-02 15:34:00,59.9,41.7,30.00,NNW,336,5.0,-999.0,51,0.00,,,0.00,Wunderground v.1.15,2013-03-02 20:34:00,
2013-03-02 15:39:00,59.5,41.9,30.00,NW,304,7.0,-999.0,52,0.00,,,0.00,Wunderground v.1.15,2013-03-02 20:39:00,
2013-03-02 15:49:00,59.1,42.0,30.00,West,277,6.0,-999.0,53,0.00,,,0.00,Wunderground v.1.15,2013-03-02 20:49:00,
2013-03-02 15:54:00,59.1,42.9,30.00,NW,319,5.0,-999.0,55,0.00,,,0.00,Wunderground v.1.15,2013-03-02 20:54:00,
2013-03-02 15:59:00,59.3,42.6,30.00,WNW,284,5.0,-999.0,54,0.00,,,0.00,Wunderground v.1.15,2013-03-02 20:59:00,
2013-03-02 16:09:00,59.3,43.1,30.00,WNW,290,6.0,-999.0,55,0.00,,,0.00,Wunderground v.1.15,2013-03-02 21:09:00,
2013-03-02 16:14:00,59.3,42.6,30.00,NW,314,6.0,-999.0,54,0.00,,,0.00,Wunderground v.1.15,2013-03-02 21:14:00,
2013-03-02 16:24:00,60.1,44.3,30.00,WNW,290,8.0,-999.0,56,0.00,,,0.00,Wunderground v.1.15,2013-03-02 21:24:00,
2013-03-02 16:29:00,60.9,44.1,30.00,NW,307,6.0,-999.0,54,0.00,,,0.00,Wunderground v.1.15,2013-03-02 21:29:00,
2013-03-02 16:34:00,60.8,43.6,29.99,WNW,289,5.0,-999.0,53,0.00,,,0.00,Wunderground v.1.15,2013-03-02 21:34:00,
2013-03-02 16:39:00,60.5,43.8,30.00,WNW,298,5.0,-999.0,54,0.00,,,0.00,Wunderground v.1.15,2013-03-02 21:39:00,
2013-03-02 16:44:00,60.9,43.6,30.00,NNW,331,5.0,-999.0,53,0.00,,,0.00,Wunderground v.1.15,2013-03-02 21:44:00,
2013-03-02 16:49:00,60.9,43.6,30.00,NW,310,6.0,-999.0,53,0.00,,,0.00,Wunderground v.1.15,2013-03-02 21:49:00,
2013-03-02 16:59:00,60.5,42.3,30.00,NW,313,6.0,-999.0,51,0.00,,,0.00,Wunderground v.1.15,2013-03-02 21:59:00,
2013-03-02 17:04:00,59.9,42.7,30.00,West,272,6.0,-999.0,53,0.00,,,0.00,Wunderground v.1.15,2013-03-02 22:04:00,
2013-03-02 17:09:00,60.3,43.1,30.00,WNW,295,6.0,-999.0,53,0.00,,,0.00,Wunderground v.1.15,2013-03-02 22:09:00,
2013-03-02 17:14:00,60.5,43.8,30.00,NW,315,6.0,-999.0,54,0.00,,,0.00,Wunderground v.1.15,2013-03-02 22:14:00,
2013-03-02 17:24:00,59.4,42.7,30.00,WNW,302,6.0,-999.0,54,0.00,,,0.00,Wunderground v.1.15,2013-03-02 22:24:00,
2013-03-02 17:29:00,59.3,42.6,30.00,WNW,295,6.0,-999.0,54,0.00,,,0.00,Wunderground v.1.15,2013-03-02 22:29:00,
2013-03-02 17:34:00,59.0,42.4,30.01,WNW,288,6.0,-999.0,54,0.00,,,0.00,Wunderground v.1.15,2013-03-02 22:34:00,
2013-03-02 17:39:00,58.9,43.2,30.01,WNW,292,7.0,-999.0,56,0.00,,,0.00,Wunderground v.1.15,2013-03-02 22:39:00,
2013-03-02 17:44:00,59.0,43.3,30.01,NW,317,5.0,-999.0,56,0.00,,,0.00,Wunderground v.1.15,2013-03-02 22:44:00,
2013-03-02 17:54:00,58.6,42.9,30.01,WNW,291,7.0,-999.0,56,0.00,,,0.00,Wunderground v.1.15,2013-03-02 22:54:00,
2013-03-02 17:59:00,58.4,42.3,30.01,WNW,296,7.0,-999.0,55,0.00,,,0.00,Wunderground v.1.15,2013-03-02 22:59:00,
2013-03-02 18:09:00,58.1,42.9,30.01,NW,307,7.0,-999.0,57,0.00,,,0.00,Wunderground v.1.15,2013-03-02 23:09:00,
2013-03-02 18:14:00,57.9,43.2,30.01,NW,319,6.0,-999.0,58,0.00,,,0.00,Wunderground v.1.15,2013-03-02 23:14:00,
2013-03-02 18:19:00,57.7,43.5,30.01,NW,325,5.0,-999.0,59,0.00,,,0.00,Wunderground v.1.15,2013-03-02 23:19:00,
2013-03-02 18:24:00,57.5,43.3,30.01,WNW,300,6.0,-999.0,59,0.00,,,0.00,Wunderground v.1.15,2013-03-02 23:24:00,
2013-03-02 18:29:00,57.3,43.5,30.01,NW,306,4.0,-999.0,60,0.00,,,0.00,Wunderground v.1.15,2013-03-02 23:29:00,
2013-03-02 18:34:00,57.1,43.3,30.01,NW,311,3.0,-999.0,60,0.00,,,0.00,Wunderground v.1.15,2013-03-02 23:34:00,
2013-03-02 18:44:00,56.7,43.0,30.02,NW,311,3.0,-999.0,60,0.00,,,0.00,Wunderground v.1.15,2013-03-02 23:44:00,
2013-03-02 18:54:00,56.3,43.4,30.02,NW,321,4.0,-999.0,62,0.00,,,0.00,Wunderground v.1.15,2013-03-02 23:54:00,
2013-03-02 18:59:00,56.1,43.3,30.02,NW,310,4.0,-999.0,62,0.00,,,0.00,Wunderground v.1.15,2013-03-02 23:59:00,
2013-03-02 19:09:00,55.8,43.0,30.02,NW,314,4.0,-999.0,62,0.00,,,0.00,Wunderground v.1.15,2013-03-03 00:09:00,
2013-03-02 19:14:00,55.7,43.3,30.02,NW,318,4.0,-999.0,63,0.00,,,0.00,Wunderground v.1.15,2013-03-03 00:14:00,
2013-03-02 19:19:00,55.4,42.6,30.02,NW,316,3.0,-999.0,62,0.00,,,0.00,Wunderground v.1.15,2013-03-03 00:19:00,
2013-03-02 19:24:00,55.3,42.9,30.02,NW,316,2.0,-999.0,63,0.00,,,0.00,Wunderground v.1.15,2013-03-03 00:24:00,
2013-03-02 19:29:00,55.2,42.8,30.02,NW,317,2.0,-999.0,63,0.00,,,0.00,Wunderground v.1.15,2013-03-03 00:29:00,
2013-03-02 19:34:00,55.1,43.1,30.02,NW,317,1.0,-999.0,64,0.00,,,0.00,Wunderground v.1.15,2013-03-03 00:34:00,
2013-03-02 19:39:00,55.0,43.0,30.02,NW,317,0.0,-999.0,64,0.00,,,0.00,Wunderground v.1.15,2013-03-03 00:39:00,
2013-03-02 19:49:00,54.9,43.4,30.03,NW,317,0.0,-999.0,65,0.00,,,0.00,Wunderground v.1.15,2013-03-03 00:49:00,
2013-03-02 19:54:00,55.0,43.8,30.03,NW,317,1.0,-999.0,66,0.00,,,0.00,Wunderground v.1.15,2013-03-03 00:54:00,
2013-03-02 19:59:00,55.1,43.5,30.03,NW,319,1.0,-999.0,65,0.00,,,0.00,Wunderground v.1.15,2013-03-03 00:59:00,
2013-03-02 20:04:00,55.1,43.9,30.03,NW,319,1.0,-999.0,66,0.00,,,0.00,Wunderground v.1.15,2013-03-03 01:04:00,
2013-03-02 20:14:00,55.2,43.6,30.03,NW,318,0.0,-999.0,65,0.00,,,0.00,Wunderground v.1.15,2013-03-03 01:14:00,
2013-03-02 20:19:00,55.0,43.8,30.03,NW,319,0.0,-999.0,66,0.00,,,0.00,Wunderground v.1.15,2013-03-03 01:19:00,
2013-03-02 20:24:00,55.0,43.8,30.03,NW,319,0.0,-999.0,66,0.00,,,0.00,Wunderground v.1.15,2013-03-03 01:24:00,
2013-03-02 20:29:00,54.8,43.7,30.03,NW,318,0.0,-999.0,66,0.00,,,0.00,Wunderground v.1.15,2013-03-03 01:29:00,
2013-03-02 20:39:00,54.6,43.5,30.03,NW,319,0.0,-999.0,66,0.00,,,0.00,Wunderground v.1.15,2013-03-03 01:39:00,
2013-03-02 20:49:00,54.4,43.7,30.04,NW,319,0.0,-999.0,67,0.00,,,0.00,Wunderground v.1.15,2013-03-03 01:49:00,
2013-03-02 20:54:00,54.4,43.7,30.03,NW,318,0.0,-999.0,67,0.00,,,0.00,Wunderground v.1.15,2013-03-03 01:54:00,
2013-03-02 20:59:00,54.3,44.0,30.04,NW,318,0.0,-999.0,68,0.00,,,0.00,Wunderground v.1.15,2013-03-03 01:59:00,
2013-03-02 21:09:00,54.2,43.9,30.04,NW,319,0.0,-999.0,68,0.00,,,0.00,Wunderground v.1.15,2013-03-03 02:09:00,
2013-03-02 21:14:00,54.2,43.9,30.04,NW,318,0.0,-999.0,68,0.00,,,0.00,Wunderground v.1.15,2013-03-03 02:14:00,
2013-03-02 21:19:00,54.1,43.4,30.04,NW,319,0.0,-999.0,67,0.00,,,0.00,Wunderground v.1.15,2013-03-03 02:19:00,
2013-03-02 21:24:00,54.1,43.8,30.04,NW,318,0.0,-999.0,68,0.00,,,0.00,Wunderground v.1.15,2013-03-03 02:24:00,
2013-03-02 21:29:00,54.1,43.8,30.04,NW,319,0.0,-999.0,68,0.00,,,0.00,Wunderground v.1.15,2013-03-03 02:29:00,
2013-03-02 21:34:00,54.2,43.9,30.04,NW,318,0.0,-999.0,68,0.00,,,0.00,Wunderground v.1.15,2013-03-03 02:34:00,
2013-03-02 21:39:00,54.2,43.5,30.04,NW,319,0.0,-999.0,67,0.00,,,0.00,Wunderground v.1.15,2013-03-03 02:39:00,
2013-03-02 21:49:00,54.0,43.3,30.04,NW,318,0.0,-999.0,67,0.00,,,0.00,Wunderground v.1.15,2013-03-03 02:49:00,
2013-03-02 21:59:00,53.9,43.2,30.04,NW,318,0.0,-999.0,67,0.00,,,0.00,Wunderground v.1.15,2013-03-03 02:59:00,
2013-03-02 22:04:00,54.0,43.7,30.04,NW,319,0.0,-999.0,68,0.00,,,0.00,Wunderground v.1.15,2013-03-03 03:04:00,
2013-03-02 22:14:00,54.1,43.4,30.04,NW,319,0.0,-999.0,67,0.00,,,0.00,Wunderground v.1.15,2013-03-03 03:14:00,
2013-03-02 22:19:00,54.1,43.4,30.04,NW,319,0.0,-999.0,67,0.00,,,0.00,Wunderground v.1.15,2013-03-03 03:19:00,
2013-03-02 22:24:00,54.1,43.4,30.04,NW,319,0.0,-999.0,67,0.00,,,0.00,Wunderground v.1.15,2013-03-03 03:24:00,
2013-03-02 22:29:00,54.1,43.4,30.04,NW,319,0.0,-999.0,67,0.00,,,0.00,Wunderground v.1.15,2013-03-03 03:29:00,
2013-03-02 22:39:00,54.1,43.0,30.04,NW,319,0.0,-999.0,66,0.00,,,0.00,Wunderground v.1.15,2013-03-03 03:39:00,
2013-03-02 22:44:00,54.0,42.9,30.04,NW,318,0.0,-999.0,66,0.00,,,0.00,Wunderground v.1.15,2013-03-03 03:44:00,
2013-03-02 22:49:00,54.0,42.9,30.04,NW,319,0.0,-999.0,66,0.00,,,0.00,Wunderground v.1.15,2013-03-03 03:49:00,
2013-03-02 22:54:00,54.0,43.3,30.04,NW,319,0.0,-999.0,67,0.00,,,0.00,Wunderground v.1.15,2013-03-03 03:54:00,
2013-03-02 22:59:00,54.0,43.3,30.04,NW,319,0.0,-999.0,67,0.00,,,0.00,Wunderground v.1.15,2013-03-03 03:59:00,
2013-03-02 23:09:00,53.9,43.2,30.03,NW,318,0.0,-999.0,67,0.00,,,0.00,Wunderground v.1.15,2013-03-03 04:09:00,
2013-03-02 23:14:00,53.8,43.1,30.03,NW,326,0.0,-999.0,67,0.00,,,0.00,Wunderground v.1.15,2013-03-03 04:14:00,
2013-03-02 23:19:00,53.8,43.1,30.03,NW,326,0.0,-999.0,67,0.00,,,0.00,Wunderground v.1.15,2013-03-03 04:19:00,
2013-03-02 23:29:00,53.7,42.6,30.03,NW,326,0.0,-999.0,66,0.00,,,0.00,Wunderground v.1.15,2013-03-03 04:29:00,
2013-03-02 23:34:00,53.6,42.9,30.03,NW,326,0.0,-999.0,67,0.00,,,0.00,Wunderground v.1.15,2013-03-03 04:34:00,
2013-03-02 23:39:00,53.6,43.3,30.03,NW,326,0.0,-999.0,68,0.00,,,0.00,Wunderground v.1.15,2013-03-03 04:39:00,
2013-03-02 23:44:00,53.6,43.3,30.03,NW,326,0.0,-999.0,68,0.00,,,0.00,Wunderground v.1.15,2013-03-03 04:44:00,
2013-03-02 23:49:00,53.6,43.7,30.03,NW,326,0.0,-999.0,69,0.00,,,0.00,Wunderground v.1.15,2013-03-03 04:49:00,
2013-03-02 23:54:00,53.5,43.6,30.03,NW,326,0.0,-999.0,69,0.00,,,0.00,Wunderground v.1.15,2013-03-03 04:54:00,